Regional Weather Roundup
Issued by NWS

Home | Current Version | Previous Version | Text Only | Print | Product List | Glossary Off
Versions: 1 2 3 4 5 6 7 8 9 10 11 12 13 14 15 16 17 18 19 20 21 22 23 24 25 26 27 28 29 30 31 32 33 34 35 36 37 38 39 40 41 42 43 44 45 46 47 48 49 50

000
ASUS43 KDTX 250210
RWRMI
MICHIGAN HOURLY REGIONAL WEATHER ROUNDUP
NATIONAL WEATHER SERVICE DETROIT/PONTIAC MI
1000 PM EDT TUE MAY 24 2016

NOTE: "FAIR" INDICATES FEW OR NO CLOUDS BELOW 12,000 FEET WITH NO
SIGNIFICANT WEATHER AND/OR OBSTRUCTION TO VISIBILITY.

MIZ047>049-052>055-059>063-066>070-074>076-081>083-250300-
SOUTHEAST LOWER MICHIGAN

CITY           SKY/WX    TMP DP  RH WIND       PRES   REMARKS
ADRIAN         CLEAR     72  49  44 CALM      30.02R
ALMA           CLEAR     65  55  68 W8        29.97R
ANN ARBOR      CLEAR     69  51  52 CALM      30.01R
BAD AXE        CLOUDY    69  51  51 CALM      29.97R
CARO           CLEAR     63  53  70 CALM      29.97R
DETROIT CITY   PTCLDY    72  47  40 S5        30.00R
DETROIT        MOCLDY    73  51  46 S8        30.01R
FLINT          CLEAR     74  51  44 S5        29.99R
GROSSE ILE     CLEAR     64  61  88 CALM      30.00R
HILLSDALE      CLEAR     70  45  40 S5        30.03R
HOWELL         CLEAR     72  49  44 CALM      30.00R

CITY           SKY/WX    TMP DP  RH WIND       PRES   REMARKS
JACKSON        CLEAR     71  49  45 S6        30.01R
LAMBERTVILLE   CLEAR     68  51  55 CALM      30.03R
LANSING        CLEAR     73  51  46 W7        30.00R
LAPEER         FAIR      65  52  62 SE6       29.99R
MASON          CLEAR     70  55  58 S9        30.00R
MONROE         CLEAR     69  51  52 SW10      30.00S
PONTIAC        PTCLDY    73  51  46 S3        30.00R
PORT HOPE        N/A     75  50  41 SW6       29.94R
PORT HURON     PTCLDY    70  48  46 S5        29.99R
TRI CITIES     PTCLDY    75  46  35 SW5       29.97R
MIDLAND        FAIR      67  55  65 CALM      29.95S
TROY           PTCLDY    79  48  34 SW6       30.02R
SAGINAW HB     CLEAR     70  50  49 S3        29.96S
$$
MIZ043>046-050>051-056>058-064>065-071>073-077>080-250300-
SOUTHWEST LOWER MICHIGAN

CITY           SKY/WX    TMP DP  RH WIND       PRES   REMARKS
BATTLE CREEK   CLEAR     73  50  44 SW3       30.01R
BENTON HARBOR  PTCLDY    70  55  59 SE3       29.97R
BIG RAPIDS     HVY RAIN  69  55  60 W14       30.00R
COLDWATER      CLEAR     67  50  55 S3        30.01R
FREMONT        MOCLDY    71  51  49 N5        29.96R
HOLLAND        CLOUDY    72  56  57 SE3       29.97R
GRAND RAPIDS   MOCLDY    73  54  51 S7        29.98R
IONIA          FAIR      69  51  53 S3        29.98R
KALAMAZOO      CLEAR     70  53  54 CALM      30.00R
LUDINGTON      MOCLDY    65  55  70 S3        29.95S
MARSHALL       CLEAR     72  50  45 CALM      30.00R
MOUNT PLEASANT CLOUDY    72  53  50 CALM      29.96S
MUSKEGON       CLOUDY    74  48  39 S5        29.95R
SOUTH HAVEN    CLOUDY    69  56  62 CALM      29.97R
$$
MIZ016>042-250300-
NORTHERN LOWER MICHIGAN

CITY           SKY/WX    TMP DP  RH WIND       PRES   REMARKS
ALPENA         CLOUDY    68  48  48 N12       29.96R
BEAVER ISLAND  PTCLDY    54  53  97 CALM      29.95R FOG
BELLAIRE       LGT RAIN  57  54  88 E3        29.97F
CADILLAC       MOCLDY    70  54  55 SW8       29.98R
CHARLEVOIX     CLOUDY    55  54  95 SE7       29.98F FOG
FRANKFORT      MOCLDY    71  55  56 SW7       29.95R
GAYLORD        CLOUDY    60  51  72 N5        30.00R
GRAYLING       CLOUDY    72  50  45 CALM      29.98R
HARBOR SPRINGS LGT RAIN  55  54  95 CALM      29.96F
HOUGHTON LAKE  CLOUDY    71  48  43 SW3       29.98R
MANISTEE       PTCLDY    70  52  52 CALM      29.96R
OSCODA         CLOUDY    75  45  33 SW6       29.94R
PELLSTON       CLOUDY    60  57  89 SE6       29.95F
ROGERS CITY    CLOUDY    63  51  64 NW5       29.98R
TRAVERSE CITY  CLOUDY    62  51  67 NE5       29.96R
$$
MIZ007>008-015-250300-
EASTERN UPPER MICHIGAN

CITY           SKY/WX    TMP DP  RH WIND       PRES   REMARKS
KINROSS          N/A     57  55  94 S5        29.94R
MACKINAC ISLAN MOCLDY    55  55 100 SE3       29.93F
NEWBERRY       FOG       58  57  97 W5        29.95R VSB 3/4
S. S. MARIE    CLOUDY    59  56  89 S3        29.93S
MUNISING         N/A     46  45  96 NE3       29.97R
$$
MIZ004>006-011>014-085-250300-
CENTRAL UPPER MICHIGAN

CITY           SKY/WX    TMP DP  RH WIND       PRES   REMARKS
MANISTIQUE     FOG       52  51  97 CALM      29.95R VSB 3/4
ESCANABA       MOCLDY    57  55  94 S6        29.93S VSB 1
MENOMINEE      PTCLDY    61  57  87 NE5       29.95R
SAWYER-GWINN   FOG       48  46  93 NE5       29.97S VSB 1
$$
MIZ001>003-009>011-084-250300-
WESTERN UPPER MICHIGAN

CITY           SKY/WX    TMP DP  RH WIND       PRES   REMARKS
IRON MOUNTAIN  CLOUDY    62  60  93 SE7       29.93R
HOUGHTON       CLOUDY    50  47  89 E9        29.99R
COPPER HARBOR    N/A     46  46 100 CALM      30.01S
$$

ABBREVIATIONS USED IN REMARKS
   TC - TEMPERATURE IN CELSIUS
  WCI - WIND CHILL INDEX
   HX - HEAT INDEX
  VSB - VISIBILITY





USA.gov is the U.S. government's official web portal to all federal, state and local government web resources and services.